{"data":{"norad_id":81078,"epoch":"2026-05-22T14:51:29.848608Z","epoch_age_seconds":277869,"freshness":"STALE","line1":"1 81078U          26142.61909547 -.00000910  00000+0 -25790-1 0  9995","line2":"2 81078  65.1136   4.4762 0195010 330.2528  56.9311 11.22457650512680","mean_motion":11.2245765,"eccentricity":0.019501,"inclination_deg":65.1136,"raan_deg":4.4762,"arg_perigee_deg":330.2528,"mean_anomaly_deg":56.9311,"bstar":-0.02579,"rev_number":51268,"period_min":128.28991810961,"perigee_km":1883.5553813651,"apogee_km":2212.1865439242,"semimajor_km":8426.0079626447,"source":"CELESTRAK","updated_at":"2026-05-25T13:38:09.444876Z"}}